Simultaneous Nadir Overpasses (SNOs) Predictions

Prediction of SNOs between NOAA-19 and NPP Satellite Orbit:

Table of predicted SNOs for the next 14.0 days since TLE Epoch: 12/27/2014
Index Date (NOAA-19) Time (NOAA-19) Lat,Lon (NOAA-19) SZA (NOAA-19 ) Date (NPP) Time (NPP) Lat,Lon (NPP) SZA (NPP ) Distance(km) Time Diff (sec)
1 01/08/2015 09:08:56 80.95, -6.93 106.41 01/08/2015 09:10:00 80.95, -6.87 106.37 1.01 64
2 01/08/2015 09:59:56 -80.94, 160.65 73.65 01/08/2015 10:00:44 -80.94, 160.67 73.67 0.39 48
3 01/08/2015 10:50:58 80.93, -32.05 106.35 01/08/2015 10:51:29 80.93, -31.97 106.32 1.38 31
4 01/08/2015 11:41:58 -80.93, 135.53 73.71 01/08/2015 11:42:13 -80.92, 135.57 73.72 0.94 15
5 01/08/2015 12:33:00 80.92, -57.17 106.29 01/08/2015 12:32:58 80.92, -57.07 106.27 1.81 2
6 01/08/2015</
